Location: Penton Mewsey
(51.2167°N, 1.5167°W)
Time: 22:00:17
(UTC+00:00)

Envisat - Visible Passes

Search period start: 05 March 2021 00:00
Search period end: 15 March 2021 00:00
Orbit: 764 x 766 km, 98.1° (Epoch: 05 March)

Date Brightness Start Highest point End Pass type
(mag) Time Alt. Az. Time Alt. Az. Time Alt. Az.
05 Mar 4.3 05:24:49 10° NNE 05:29:42 44° E 05:34:33 10° S visible
05 Mar 6.4 18:26:36 10° WSW 18:29:17 14° W 18:31:57 10° NW visible
06 Mar 5.5 04:48:33 10° NE 04:52:34 23° E 04:56:34 10° SE visible
07 Mar 6.2 04:13:35 10° ENE 04:15:14 11° E 04:16:52 10° ESE visible
07 Mar 3.4 05:50:05 10° NNE 05:55:12 72° ESE 06:00:16 10° S visible
08 Mar 4.7 05:13:30 10° NNE 05:18:12 36° E 05:22:52 10° SSE visible
09 Mar 5.8 04:37:27 10° NE 04:41:01 19° E 04:44:33 10° SE visible
10 Mar 3.8 05:38:41 10° NNE 05:43:44 58° E 05:48:44 10° S visible
10 Mar 6.8 18:42:36 10° W 18:43:29 10° W 18:44:22 10° WNW visible
11 Mar 5.1 05:02:13 10° NNE 05:06:41 30° E 05:11:07 10° SSE visible
12 Mar 6.0 04:26:28 10° NE 04:29:26 15° E 04:32:23 10° ESE visible
13 Mar 4.2 05:27:19 10° NNE 05:32:16 48° E 05:37:09 10° S visible
14 Mar 5.5 04:51:00 10° NE 04:55:09 25° E 04:59:16 10° SE visible
